Wetterdaten: Samstag, 18.01.2014
Datum Zeit Temp. Auen Feucht Auen Luftdruck Regen Richtung Richtung Windben
18.01.2014 00:00 1,1 C 93 % 1008,3 hPa 0,0 mm W-NW 284 0,0 km/h (0 Bft)
18.01.2014 00:05 1,1 C 93 % 1008,3 hPa 0,0 mm W-NW 284 0,0 km/h (0 Bft)
18.01.2014 00:10 1,0 C 93 % 1008,3 hPa 0,0 mm W-NW 284 0,0 km/h (0 Bft)
18.01.2014 00:15 0,9 C 93 % 1008,3 hPa 0,0 mm W-NW 284 0,0 km/h (0 Bft)
18.01.2014 00:20 0,7 C 93 % 1008,3 hPa 0,0 mm W-NW 284 1,6 km/h (1 Bft)
18.01.2014 00:25 0,6 C 93 % 1008,3 hPa 0,0 mm W-NW 284 0,0 km/h (0 Bft)
18.01.2014 00:30 0,6 C 93 % 1008,3 hPa 0,0 mm W-NW 284 0,0 km/h (0 Bft)
18.01.2014 00:35 0,6 C 93 % 1008,3 hPa 0,0 mm W-NW 284 1,6 km/h (1 Bft)
18.01.2014 00:40 0,5 C 93 % 1008,2 hPa 0,0 mm W-NW 284 1,6 km/h (1 Bft)
18.01.2014 00:45 0,4 C 93 % 1008,3 hPa 0,0 mm W-NW 284 0,0 km/h (0 Bft)
18.01.2014 00:50 0,4 C 93 % 1008,3 hPa 0,0 mm W-NW 284 3,2 km/h (1 Bft)
18.01.2014 00:55 0,3 C 93 % 1008,3 hPa 0,0 mm W-NW 284 3,2 km/h (1 Bft)
18.01.2014 01:00 0,3 C 93 % 1008,4 hPa 0,0 mm W-NW 284 3,2 km/h (1 Bft)
18.01.2014 01:05 0,3 C 93 % 1008,4 hPa 0,0 mm W-NW 284 1,6 km/h (1 Bft)
18.01.2014 01:10 0,2 C 94 % 1008,4 hPa 0,0 mm W-NW 284 0,0 km/h (0 Bft)
18.01.2014 01:15 0,1 C 93 % 1008,4 hPa 0,0 mm W-NW 284 0,0 km/h (0 Bft)
18.01.2014 01:20 0,0 C 93 % 1008,4 hPa 0,0 mm W-NW 284 0,0 km/h (0 Bft)
18.01.2014 01:25 -0,1 C 93 % 1008,4 hPa 0,0 mm W-NW 284 0,0 km/h (0 Bft)
18.01.2014 01:30 -0,2 C 93 % 1008,5 hPa 0,0 mm W-NW 284 0,0 km/h (0 Bft)
18.01.2014 01:35 -0,3 C 93 % 1008,6 hPa 0,0 mm W-NW 284 0,0 km/h (0 Bft)
18.01.2014 01:40 -0,3 C 93 % 1008,6 hPa 0,0 mm W-NW 284 0,0 km/h (0 Bft)
18.01.2014 01:45 -0,4 C 94 % 1008,5 hPa 0,0 mm W-NW 284 0,0 km/h (0 Bft)
18.01.2014 01:50 -0,4 C 93 % 1008,6 hPa 0,0 mm W-NW 284 0,0 km/h (0 Bft)
18.01.2014 01:55 -0,4 C 93 % 1008,6 hPa 0,0 mm W-NW 284 0,0 km/h (0 Bft)
18.01.2014 02:00 -0,4 C 94 % 1008,7 hPa 0,0 mm W-NW 284 1,6 km/h (1 Bft)
18.01.2014 02:05 -0,3 C 94 % 1008,7 hPa 0,0 mm W-NW 284 0,0 km/h (0 Bft)
18.01.2014 02:10 -0,2 C 93 % 1008,7 hPa 0,0 mm W-NW 284 0,0 km/h (0 Bft)
18.01.2014 02:15 0,1 C 94 % 1008,8 hPa 0,0 mm W-NW 284 0,0 km/h (0 Bft)
18.01.2014 02:20 0,3 C 93 % 1008,8 hPa 0,0 mm W-NW 284 0,0 km/h (0 Bft)
18.01.2014 02:25 0,5 C 93 % 1008,8 hPa 0,0 mm W-NW 284 1,6 km/h (1 Bft)
18.01.2014 02:30 0,8 C 93 % 1008,8 hPa 0,0 mm S-SO 165 3,2 km/h (1 Bft)
18.01.2014 02:35 0,9 C 94 % 1008,8 hPa 0,0 mm S-SO 165 1,6 km/h (1 Bft)
18.01.2014 02:40 1,0 C 94 % 1008,7 hPa 0,0 mm S-SO 165 1,6 km/h (1 Bft)
18.01.2014 02:45 1,1 C 93 % 1008,7 hPa 0,0 mm SO 139 4,8 km/h (1 Bft)
18.01.2014 02:50 1,2 C 93 % 1008,8 hPa 0,0 mm O-SO 121 4,8 km/h (1 Bft)
18.01.2014 02:55 1,3 C 93 % 1008,8 hPa 0,0 mm O-SO 121 4,8 km/h (1 Bft)
18.01.2014 03:00 1,3 C 93 % 1008,8 hPa 0,0 mm O-SO 113 4,8 km/h (1 Bft)
18.01.2014 03:05 1,3 C 94 % 1008,9 hPa 0,0 mm SO 134 4,8 km/h (1 Bft)
18.01.2014 03:10 1,3 C 94 % 1008,9 hPa 0,0 mm SO 134 4,8 km/h (1 Bft)
18.01.2014 03:15 1,3 C 94 % 1009,0 hPa 0,0 mm SO 129 4,8 km/h (1 Bft)
18.01.2014 03:20 1,3 C 94 % 1009,0 hPa 0,0 mm O-SO 121 4,8 km/h (1 Bft)
18.01.2014 03:25 1,3 C 93 % 1009,0 hPa 0,0 mm O-SO 105 4,8 km/h (1 Bft)
18.01.2014 03:30 1,3 C 93 % 1009,0 hPa 0,0 mm O 97 4,8 km/h (1 Bft)
18.01.2014 03:35 1,3 C 93 % 1009,0 hPa 0,0 mm O 90 4,8 km/h (1 Bft)
18.01.2014 03:40 1,2 C 93 % 1009,0 hPa 0,0 mm O 84 4,8 km/h (1 Bft)
18.01.2014 03:45 1,3 C 93 % 1009,0 hPa 0,0 mm O-SO 108 4,8 km/h (1 Bft)
18.01.2014 03:50 1,3 C 93 % 1008,9 hPa 0,0 mm O 85 4,8 km/h (1 Bft)
18.01.2014 03:55 1,3 C 94 % 1008,8 hPa 0,0 mm O 90 4,8 km/h (1 Bft)
18.01.2014 04:00 1,3 C 93 % 1008,8 hPa 0,0 mm O 97 4,8 km/h (1 Bft)
18.01.2014 04:05 1,3 C 94 % 1008,7 hPa 0,0 mm O-NO 78 4,8 km/h (1 Bft)
18.01.2014 04:10 1,2 C 94 % 1008,7 hPa 0,0 mm O 101 4,8 km/h (1 Bft)
18.01.2014 04:15 1,2 C 94 % 1008,6 hPa 0,0 mm O-NO 59 6,4 km/h (2 Bft)
18.01.2014 04:20 1,2 C 94 % 1008,7 hPa 0,0 mm O 97 9,7 km/h (2 Bft)
18.01.2014 04:25 1,2 C 94 % 1008,6 hPa 0,0 mm O 85 9,7 km/h (2 Bft)
18.01.2014 04:30 1,2 C 94 % 1008,6 hPa 0,0 mm O 88 9,7 km/h (2 Bft)
18.01.2014 04:35 1,1 C 94 % 1008,5 hPa 0,0 mm O-NO 75 8,0 km/h (2 Bft)
18.01.2014 04:40 1,1 C 94 % 1008,5 hPa 0,0 mm O 86 8,0 km/h (2 Bft)
18.01.2014 04:45 1,1 C 94 % 1008,4 hPa 0,0 mm O 98 4,8 km/h (1 Bft)
18.01.2014 04:50 1,1 C 94 % 1008,4 hPa 0,0 mm O 93 9,7 km/h (2 Bft)
18.01.2014 04:55 1,1 C 94 % 1008,4 hPa 0,0 mm O 88 8,0 km/h (2 Bft)
18.01.2014 05:00 1,1 C 94 % 1008,3 hPa 0,0 mm O 84 8,0 km/h (2 Bft)
18.01.2014 05:05 1,1 C 94 % 1008,3 hPa 0,0 mm SO 127 8,0 km/h (2 Bft)
18.01.2014 05:10 1,1 C 94 % 1008,2 hPa 0,0 mm O-SO 103 8,0 km/h (2 Bft)
18.01.2014 05:15 1,1 C 94 % 1008,3 hPa 0,0 mm O-SO 115 4,8 km/h (1 Bft)
18.01.2014 05:20 1,1 C 94 % 1008,2 hPa 0,0 mm O 85 4,8 km/h (1 Bft)
18.01.2014 05:25 1,1 C 94 % 1008,1 hPa 0,0 mm O 92 4,8 km/h (1 Bft)
18.01.2014 05:30 1,0 C 94 % 1008,0 hPa 0,0 mm O 82 4,8 km/h (1 Bft)
18.01.2014 05:35 1,0 C 94 % 1008,0 hPa 0,0 mm O 96 8,0 km/h (2 Bft)
18.01.2014 05:40 0,9 C 94 % 1008,0 hPa 0,0 mm O 97 4,8 km/h (1 Bft)
18.01.2014 05:45 0,9 C 94 % 1008,0 hPa 0,0 mm O 97 4,8 km/h (1 Bft)
18.01.2014 05:50 0,9 C 94 % 1008,0 hPa 0,0 mm O 97 4,8 km/h (1 Bft)
18.01.2014 05:55 0,9 C 94 % 1008,0 hPa 0,0 mm SO 134 4,8 km/h (1 Bft)
18.01.2014 06:00 0,9 C 94 % 1008,0 hPa 0,0 mm O-SO 116 3,2 km/h (1 Bft)
18.01.2014 06:05 0,9 C 94 % 1007,9 hPa 0,0 mm O-SO 121 4,8 km/h (1 Bft)
18.01.2014 06:10 1,0 C 94 % 1008,0 hPa 0,0 mm O-SO 117 8,0 km/h (2 Bft)
18.01.2014 06:15 1,0 C 94 % 1007,9 hPa 0,0 mm O-NO 65 6,4 km/h (2 Bft)
18.01.2014 06:20 0,9 C 94 % 1007,9 hPa 0,0 mm SO 130 8,0 km/h (2 Bft)
18.01.2014 06:25 0,9 C 94 % 1008,0 hPa 0,0 mm SO 126 8,0 km/h (2 Bft)
18.01.2014 06:30 0,9 C 94 % 1008,0 hPa 0,0 mm O 96 4,8 km/h (1 Bft)
18.01.2014 06:35 0,9 C 94 % 1007,9 hPa 0,0 mm O-SO 107 8,0 km/h (2 Bft)
18.01.2014 06:40 0,9 C 94 % 1008,0 hPa 0,0 mm O-SO 103 8,0 km/h (2 Bft)
18.01.2014 06:45 0,9 C 94 % 1007,9 hPa 0,0 mm O-SO 117 8,0 km/h (2 Bft)
18.01.2014 06:50 0,9 C 94 % 1007,8 hPa 0,0 mm O 84 9,7 km/h (2 Bft)
18.01.2014 06:55 0,9 C 94 % 1007,7 hPa 0,0 mm O-SO 102 8,0 km/h (2 Bft)
18.01.2014 07:00 0,9 C 94 % 1007,8 hPa 0,0 mm O-NO 75 9,7 km/h (2 Bft)
18.01.2014 07:05 0,9 C 94 % 1007,7 hPa 0,0 mm O 99 8,0 km/h (2 Bft)
18.01.2014 07:10 0,9 C 94 % 1007,7 hPa 0,0 mm O-SO 117 11,3 km/h (2 Bft)
18.01.2014 07:15 0,8 C 94 % 1007,6 hPa 0,0 mm O 86 8,0 km/h (2 Bft)
18.01.2014 07:20 0,8 C 94 % 1007,7 hPa 0,0 mm SO 134 8,0 km/h (2 Bft)
18.01.2014 07:25 0,8 C 94 % 1007,7 hPa 0,0 mm O-SO 115 8,0 km/h (2 Bft)
18.01.2014 07:30 0,8 C 94 % 1007,6 hPa 0,0 mm O-NO 72 8,0 km/h (2 Bft)
18.01.2014 07:35 0,8 C 94 % 1007,6 hPa 0,0 mm O 93 8,0 km/h (2 Bft)
18.01.2014 07:40 0,8 C 94 % 1007,6 hPa 0,0 mm O-SO 107 4,8 km/h (1 Bft)
18.01.2014 07:45 0,7 C 94 % 1007,6 hPa 0,0 mm SO 127 6,4 km/h (2 Bft)
18.01.2014 07:50 0,7 C 94 % 1007,5 hPa 0,0 mm O 101 8,0 km/h (2 Bft)
18.01.2014 07:55 0,7 C 94 % 1007,5 hPa 0,0 mm O-NO 74 9,7 km/h (2 Bft)
18.01.2014 08:00 0,7 C 94 % 1007,6 hPa 0,0 mm O 95 12,9 km/h (3 Bft)
18.01.2014 08:05 0,7 C 94 % 1007,5 hPa 0,0 mm O 94 9,7 km/h (2 Bft)
18.01.2014 08:10 0,6 C 94 % 1007,5 hPa 0,0 mm O 84 8,0 km/h (2 Bft)
18.01.2014 08:15 0,5 C 94 % 1007,4 hPa 0,0 mm O 90 9,7 km/h (2 Bft)
18.01.2014 08:20 0,5 C 94 % 1007,3 hPa 0,0 mm O 88 9,7 km/h (2 Bft)
18.01.2014 08:25 0,4 C 94 % 1007,4 hPa 0,0 mm O-NO 78 11,3 km/h (2 Bft)
18.01.2014 08:30 0,4 C 94 % 1007,5 hPa 0,0 mm O 89 12,9 km/h (3 Bft)
18.01.2014 08:35 0,4 C 94 % 1007,2 hPa 0,0 mm O 84 12,9 km/h (3 Bft)
18.01.2014 08:40 0,4 C 94 % 1007,3 hPa 0,0 mm O 95 12,9 km/h (3 Bft)
18.01.2014 08:45 0,4 C 94 % 1007,3 hPa 0,0 mm O 84 9,7 km/h (2 Bft)
18.01.2014 08:50 0,4 C 94 % 1007,4 hPa 0,0 mm O 96 11,3 km/h (2 Bft)
18.01.2014 08:55 0,4 C 94 % 1007,3 hPa 0,0 mm O 92 8,0 km/h (2 Bft)
18.01.2014 09:00 0,5 C 94 % 1007,3 hPa 0,0 mm O-SO 107 11,3 km/h (2 Bft)
18.01.2014 09:05 0,5 C 94 % 1007,3 hPa 0,0 mm O-SO 107 9,7 km/h (2 Bft)
18.01.2014 09:10 0,5 C 94 % 1007,3 hPa 0,0 mm O-SO 115 8,0 km/h (2 Bft)
18.01.2014 09:15 0,5 C 94 % 1007,3 hPa 0,0 mm O 88 8,0 km/h (2 Bft)
18.01.2014 09:20 0,6 C 94 % 1007,2 hPa 0,0 mm O 94 8,0 km/h (2 Bft)
18.01.2014 09:25 0,6 C 94 % 1007,3 hPa 0,0 mm O-NO 78 9,7 km/h (2 Bft)
18.01.2014 09:30 0,7 C 94 % 1007,2 hPa 0,0 mm O 98 8,0 km/h (2 Bft)
18.01.2014 09:35 0,7 C 94 % 1007,1 hPa 0,0 mm O 86 9,7 km/h (2 Bft)
18.01.2014 09:40 0,8 C 94 % 1007,1 hPa 0,0 mm O 82 9,7 km/h (2 Bft)
18.01.2014 09:45 0,8 C 94 % 1007,1 hPa 0,0 mm O-SO 104 11,3 km/h (2 Bft)
18.01.2014 09:50 0,7 C 94 % 1007,0 hPa 0,0 mm O 86 9,7 km/h (2 Bft)
18.01.2014 09:55 0,7 C 94 % 1006,9 hPa 0,0 mm O 98 8,0 km/h (2 Bft)
18.01.2014 10:00 0,7 C 94 % 1006,9 hPa 0,0 mm O 81 11,3 km/h (2 Bft)
18.01.2014 10:05 0,7 C 94 % 1006,9 hPa 0,0 mm O-NO 63 9,7 km/h (2 Bft)
18.01.2014 10:10 0,6 C 94 % 1006,9 hPa 0,0 mm NO 49 11,3 km/h (2 Bft)
18.01.2014 10:15 0,6 C 94 % 1006,9 hPa 0,0 mm O 92 9,7 km/h (2 Bft)
18.01.2014 10:20 0,7 C 94 % 1006,9 hPa 0,0 mm O 84 9,7 km/h (2 Bft)
18.01.2014 10:25 0,7 C 94 % 1006,9 hPa 0,0 mm O-NO 71 11,3 km/h (2 Bft)
18.01.2014 10:30 0,7 C 94 % 1006,8 hPa 0,0 mm O-NO 57 9,7 km/h (2 Bft)
18.01.2014 10:35 0,7 C 94 % 1006,8 hPa 0,0 mm O-NO 67 9,7 km/h (2 Bft)
18.01.2014 10:40 0,7 C 94 % 1006,7 hPa 0,0 mm NO 48 6,4 km/h (2 Bft)
18.01.2014 10:45 0,8 C 94 % 1006,7 hPa 0,0 mm O 97 8,0 km/h (2 Bft)
18.01.2014 10:50 0,8 C 94 % 1006,6 hPa 0,0 mm O 94 6,4 km/h (2 Bft)
18.01.2014 10:55 0,8 C 94 % 1006,5 hPa 0,0 mm O-NO 67 8,0 km/h (2 Bft)
18.01.2014 11:00 0,8 C 94 % 1006,5 hPa 0,0 mm O-NO 75 8,0 km/h (2 Bft)
18.01.2014 11:05 0,8 C 94 % 1006,4 hPa 0,0 mm O 95 8,0 km/h (2 Bft)
18.01.2014 11:10 0,8 C 94 % 1006,3 hPa 0,0 mm O 90 9,7 km/h (2 Bft)
18.01.2014 11:15 0,8 C 94 % 1006,2 hPa 0,0 mm O-NO 67 11,3 km/h (2 Bft)
18.01.2014 11:20 0,8 C 94 % 1006,1 hPa 0,0 mm O-SO 105 8,0 km/h (2 Bft)
18.01.2014 11:25 0,8 C 94 % 1006,1 hPa 0,0 mm O-SO 108 6,4 km/h (2 Bft)
18.01.2014 11:30 0,9 C 94 % 1006,0 hPa 0,0 mm O-SO 113 9,7 km/h (2 Bft)
18.01.2014 11:35 0,9 C 94 % 1005,9 hPa 0,0 mm O 88 8,0 km/h (2 Bft)
18.01.2014 11:40 1,1 C 94 % 1005,7 hPa 0,0 mm O-NO 73 8,0 km/h (2 Bft)
18.01.2014 11:45 1,1 C 94 % 1005,7 hPa 0,0 mm O 82 9,7 km/h (2 Bft)
18.01.2014 11:50 1,2 C 94 % 1005,6 hPa 0,0 mm O 86 11,3 km/h (2 Bft)
18.01.2014 11:55 1,3 C 94 % 1005,5 hPa 0,0 mm O 80 11,3 km/h (2 Bft)
18.01.2014 12:00 1,3 C 94 % 1005,6 hPa 0,0 mm O 84 11,3 km/h (2 Bft)
18.01.2014 12:05 1,4 C 94 % 1005,4 hPa 0,0 mm O-NO 73 12,9 km/h (3 Bft)
18.01.2014 12:10 1,3 C 94 % 1005,4 hPa 0,0 mm O 79 11,3 km/h (2 Bft)
18.01.2014 12:15 1,3 C 94 % 1005,5 hPa 0,0 mm O 90 11,3 km/h (2 Bft)
18.01.2014 12:20 1,3 C 94 % 1005,4 hPa 0,0 mm O 99 12,9 km/h (3 Bft)
18.01.2014 12:25 1,4 C 94 % 1005,1 hPa 0,0 mm O 94 11,3 km/h (2 Bft)
18.01.2014 12:30 1,6 C 94 % 1005,2 hPa 0,0 mm O 88 11,3 km/h (2 Bft)
18.01.2014 12:35 1,7 C 94 % 1005,1 hPa 0,0 mm O-SO 111 9,7 km/h (2 Bft)
18.01.2014 12:40 1,7 C 94 % 1005,1 hPa 0,0 mm NO 42 11,3 km/h (2 Bft)
18.01.2014 12:45 1,7 C 94 % 1005,0 hPa 0,0 mm O 96 11,3 km/h (2 Bft)
18.01.2014 12:50 1,8 C 94 % 1004,9 hPa 0,0 mm O 86 11,3 km/h (2 Bft)
18.01.2014 12:55 1,9 C 94 % 1004,9 hPa 0,0 mm O-NO 71 12,9 km/h (3 Bft)
18.01.2014 13:00 2,3 C 94 % 1004,7 hPa 0,0 mm O 82 11,3 km/h (2 Bft)
18.01.2014 13:05 2,6 C 94 % 1004,7 hPa 0,0 mm O 82 12,9 km/h (3 Bft)
18.01.2014 13:10 2,7 C 94 % 1004,5 hPa 0,0 mm O-SO 103 14,5 km/h (3 Bft)
18.01.2014 13:15 3,1 C 94 % 1004,5 hPa 0,0 mm NO 40 14,5 km/h (3 Bft)
18.01.2014 13:20 2,8 C 94 % 1004,4 hPa 0,0 mm O 90 14,5 km/h (3 Bft)
18.01.2014 13:25 2,7 C 94 % 1004,4 hPa 0,0 mm N-NO 31 12,9 km/h (3 Bft)
18.01.2014 13:30 2,6 C 94 % 1004,2 hPa 0,0 mm O-NO 75 12,9 km/h (3 Bft)
18.01.2014 13:35 2,8 C 93 % 1004,1 hPa 0,0 mm O 101 12,9 km/h (3 Bft)
18.01.2014 13:40 2,6 C 93 % 1004,1 hPa 0,0 mm O 83 14,5 km/h (3 Bft)
18.01.2014 13:45 2,5 C 93 % 1004,0 hPa 0,0 mm O 79 12,9 km/h (3 Bft)
18.01.2014 13:50 2,4 C 93 % 1004,0 hPa 0,0 mm O 92 11,3 km/h (2 Bft)
18.01.2014 13:55 2,5 C 93 % 1004,0 hPa 0,0 mm NO 36 11,3 km/h (2 Bft)
18.01.2014 14:00 2,8 C 93 % 1003,9 hPa 0,0 mm O-NO 65 11,3 km/h (2 Bft)
18.01.2014 14:05 2,7 C 93 % 1003,9 hPa 0,0 mm O 92 12,9 km/h (3 Bft)
18.01.2014 14:10 2,4 C 93 % 1003,8 hPa 0,0 mm O-SO 122 11,3 km/h (2 Bft)
18.01.2014 14:15 2,5 C 93 % 1003,8 hPa 0,0 mm SO 132 9,7 km/h (2 Bft)
18.01.2014 14:20 2,6 C 93 % 1003,9 hPa 0,0 mm O-NO 77 11,3 km/h (2 Bft)
18.01.2014 14:25 2,7 C 93 % 1003,9 hPa 0,0 mm O 84 9,7 km/h (2 Bft)
18.01.2014 14:30 2,7 C 93 % 1003,9 hPa 0,0 mm O 96 8,0 km/h (2 Bft)
18.01.2014 14:35 2,7 C 93 % 1004,0 hPa 0,0 mm O-NO 68 4,8 km/h (1 Bft)
18.01.2014 14:40 2,6 C 93 % 1004,1 hPa 0,0 mm O 81 8,0 km/h (2 Bft)
18.01.2014 14:45 2,6 C 93 % 1004,1 hPa 0,0 mm O 84 8,0 km/h (2 Bft)
18.01.2014 14:50 2,6 C 93 % 1004,1 hPa 0,0 mm O-SO 108 11,3 km/h (2 Bft)
18.01.2014 14:55 2,8 C 93 % 1004,2 hPa 0,0 mm O 88 8,0 km/h (2 Bft)
18.01.2014 15:00 2,9 C 93 % 1004,3 hPa 0,0 mm O-SO 106 11,3 km/h (2 Bft)
18.01.2014 15:05 2,6 C 92 % 1004,2 hPa 0,0 mm O 82 11,3 km/h (2 Bft)
18.01.2014 15:10 2,3 C 93 % 1004,2 hPa 0,0 mm NO 55 11,3 km/h (2 Bft)
18.01.2014 15:15 2,1 C 93 % 1004,2 hPa 0,0 mm NO 43 11,3 km/h (2 Bft)
18.01.2014 15:20 2,0 C 93 % 1004,3 hPa 0,0 mm NO 55 11,3 km/h (2 Bft)
18.01.2014 15:25 1,8 C 93 % 1004,4 hPa 0,0 mm NO 38 11,3 km/h (2 Bft)
18.01.2014 15:30 1,7 C 93 % 1004,4 hPa 0,0 mm NO 49 12,9 km/h (3 Bft)
18.01.2014 15:35 1,5 C 93 % 1004,3 hPa 0,0 mm O 91 9,7 km/h (2 Bft)
18.01.2014 15:40 1,4 C 93 % 1004,4 hPa 0,0 mm NO 47 12,9 km/h (3 Bft)
18.01.2014 15:45 1,3 C 93 % 1004,3 hPa 0,0 mm NO 39 11,3 km/h (2 Bft)
18.01.2014 15:50 1,3 C 93 % 1004,3 hPa 0,0 mm NO 45 8,0 km/h (2 Bft)
18.01.2014 15:55 1,2 C 93 % 1004,2 hPa 0,0 mm O 90 8,0 km/h (2 Bft)
18.01.2014 16:00 1,2 C 93 % 1004,4 hPa 0,0 mm O-NO 74 11,3 km/h (2 Bft)
18.01.2014 16:05 1,2 C 93 % 1004,4 hPa 0,0 mm O 93 11,3 km/h (2 Bft)
18.01.2014 16:10 1,3 C 93 % 1004,4 hPa 0,0 mm O-NO 71 11,3 km/h (2 Bft)
18.01.2014 16:15 1,3 C 94 % 1004,4 hPa 0,0 mm O-NO 78 11,3 km/h (2 Bft)
18.01.2014 16:20 1,3 C 94 % 1004,4 hPa 0,0 mm O-NO 78 11,3 km/h (2 Bft)
18.01.2014 16:25 1,3 C 94 % 1004,4 hPa 0,0 mm O 96 11,3 km/h (2 Bft)
18.01.2014 16:30 1,4 C 94 % 1004,4 hPa 0,0 mm O-NO 65 8,0 km/h (2 Bft)
18.01.2014 16:35 1,3 C 94 % 1004,4 hPa 0,0 mm O-NO 60 8,0 km/h (2 Bft)
18.01.2014 16:40 1,3 C 94 % 1004,4 hPa 0,0 mm O 95 6,4 km/h (2 Bft)
18.01.2014 16:45 1,3 C 94 % 1004,4 hPa 0,0 mm O 87 8,0 km/h (2 Bft)
18.01.2014 16:50 1,3 C 94 % 1004,5 hPa 0,0 mm O 90 9,7 km/h (2 Bft)
18.01.2014 16:55 1,3 C 94 % 1004,5 hPa 0,0 mm O-NO 75 6,4 km/h (2 Bft)
18.01.2014 17:00 1,3 C 94 % 1004,5 hPa 0,0 mm O 90 4,8 km/h (1 Bft)
18.01.2014 17:05 1,3 C 94 % 1004,6 hPa 0,0 mm O 90 6,4 km/h (2 Bft)
18.01.2014 17:10 1,2 C 94 % 1004,5 hPa 0,0 mm NO 44 8,0 km/h (2 Bft)
18.01.2014 17:15 1,3 C 94 % 1004,7 hPa 0,0 mm O-NO 67 8,0 km/h (2 Bft)
18.01.2014 17:20 1,3 C 94 % 1004,7 hPa 0,0 mm O 98 9,7 km/h (2 Bft)
18.01.2014 17:25 1,2 C 94 % 1004,7 hPa 0,0 mm O 90 11,3 km/h (2 Bft)
18.01.2014 17:30 1,2 C 94 % 1004,7 hPa 0,0 mm O 96 12,9 km/h (3 Bft)
18.01.2014 17:35 1,2 C 94 % 1004,6 hPa 0,0 mm O 89 11,3 km/h (2 Bft)
18.01.2014 17:40 1,2 C 94 % 1004,6 hPa 0,0 mm O 96 12,9 km/h (3 Bft)
18.01.2014 17:45 1,2 C 94 % 1004,6 hPa 0,0 mm O 83 14,5 km/h (3 Bft)
18.01.2014 17:50 1,2 C 94 % 1004,6 hPa 0,0 mm O-NO 69 11,3 km/h (2 Bft)
18.01.2014 17:55 1,1 C 94 % 1004,5 hPa 0,0 mm O-NO 72 12,9 km/h (3 Bft)
18.01.2014 18:00 1,2 C 94 % 1004,5 hPa 0,0 mm NO 45 11,3 km/h (2 Bft)
18.01.2014 18:05 1,1 C 94 % 1004,5 hPa 0,0 mm O 92 11,3 km/h (2 Bft)
18.01.2014 18:10 1,1 C 94 % 1004,5 hPa 0,0 mm O 88 14,5 km/h (3 Bft)
18.01.2014 18:15 1,1 C 94 % 1004,5 hPa 0,0 mm O-NO 76 17,7 km/h (3 Bft)
18.01.2014 18:20 1,1 C 94 % 1004,5 hPa 0,0 mm O-NO 58 14,5 km/h (3 Bft)
18.01.2014 18:25 1,1 C 94 % 1004,5 hPa 0,0 mm O-NO 67 12,9 km/h (3 Bft)
18.01.2014 18:30 1,1 C 94 % 1004,5 hPa 0,0 mm O 89 11,3 km/h (2 Bft)
18.01.2014 18:35 1,1 C 94 % 1004,4 hPa 0,0 mm O-NO 59 9,7 km/h (2 Bft)
18.01.2014 18:40 1,1 C 94 % 1004,2 hPa 0,0 mm O 101 9,7 km/h (2 Bft)
18.01.2014 18:45 1,1 C 94 % 1004,3 hPa 0,0 mm O 90 8,0 km/h (2 Bft)
18.01.2014 18:50 1,1 C 94 % 1004,4 hPa 0,0 mm O 91 8,0 km/h (2 Bft)
18.01.2014 18:55 1,1 C 94 % 1004,5 hPa 0,0 mm NO 42 9,7 km/h (2 Bft)
18.01.2014 19:00 1,2 C 94 % 1004,4 hPa 0,0 mm O 80 8,0 km/h (2 Bft)
18.01.2014 19:05 1,2 C 94 % 1004,6 hPa 0,0 mm O 92 8,0 km/h (2 Bft)
18.01.2014 19:10 1,2 C 94 % 1004,5 hPa 0,0 mm O 85 8,0 km/h (2 Bft)
18.01.2014 19:15 1,2 C 94 % 1004,6 hPa 0,0 mm O-NO 68 8,0 km/h (2 Bft)
18.01.2014 19:20 1,2 C 94 % 1004,6 hPa 0,0 mm O 90 8,0 km/h (2 Bft)
18.01.2014 19:25 1,3 C 94 % 1004,6 hPa 0,0 mm O 86 11,3 km/h (2 Bft)
18.01.2014 19:30 1,3 C 94 % 1004,5 hPa 0,0 mm O 86 9,7 km/h (2 Bft)
18.01.2014 19:35 1,3 C 94 % 1004,6 hPa 0,0 mm O-NO 76 12,9 km/h (3 Bft)
18.01.2014 19:40 1,3 C 94 % 1004,6 hPa 0,0 mm O-NO 63 11,3 km/h (2 Bft)
18.01.2014 19:45 1,3 C 94 % 1004,6 hPa 0,0 mm O 87 11,3 km/h (2 Bft)
18.01.2014 19:50 1,3 C 94 % 1004,5 hPa 0,0 mm O 88 9,7 km/h (2 Bft)
18.01.2014 19:55 1,4 C 94 % 1004,6 hPa 0,0 mm O 87 11,3 km/h (2 Bft)
18.01.2014 20:00 1,4 C 94 % 1004,6 hPa 0,0 mm O 96 11,3 km/h (2 Bft)
18.01.2014 20:05 1,4 C 94 % 1004,6 hPa 0,0 mm O 93 9,7 km/h (2 Bft)
18.01.2014 20:10 1,3 C 94 % 1004,6 hPa 0,0 mm O-NO 75 12,9 km/h (3 Bft)
18.01.2014 20:15 1,3 C 94 % 1004,6 hPa 0,0 mm O-SO 103 11,3 km/h (2 Bft)
18.01.2014 20:20 1,3 C 94 % 1004,6 hPa 0,0 mm O 99 11,3 km/h (2 Bft)
18.01.2014 20:25 1,4 C 94 % 1004,5 hPa 0,0 mm O 88 11,3 km/h (2 Bft)
18.01.2014 20:30 1,4 C 94 % 1004,5 hPa 0,0 mm O-NO 77 9,7 km/h (2 Bft)
18.01.2014 20:35 1,4 C 94 % 1004,6 hPa 0,0 mm O 89 8,0 km/h (2 Bft)
18.01.2014 20:40 1,3 C 94 % 1004,5 hPa 0,0 mm O-SO 105 9,7 km/h (2 Bft)
18.01.2014 20:45 1,4 C 94 % 1004,6 hPa 0,0 mm O-NO 65 11,3 km/h (2 Bft)
18.01.2014 20:50 1,4 C 94 % 1004,6 hPa 0,0 mm O 83 9,7 km/h (2 Bft)
18.01.2014 20:55 1,4 C 94 % 1004,6 hPa 0,0 mm O-NO 77 9,7 km/h (2 Bft)
18.01.2014 21:00 1,4 C 94 % 1004,6 hPa 0,0 mm O 91 11,3 km/h (2 Bft)
18.01.2014 21:05 1,4 C 94 % 1004,4 hPa 0,0 mm O 82 11,3 km/h (2 Bft)
18.01.2014 21:10 1,4 C 94 % 1004,4 hPa 0,0 mm O-SO 105 9,7 km/h (2 Bft)
18.01.2014 21:15 1,5 C 94 % 1004,3 hPa 0,0 mm O-SO 109 9,7 km/h (2 Bft)
18.01.2014 21:20 1,5 C 94 % 1004,3 hPa 0,0 mm O-SO 121 9,7 km/h (2 Bft)
18.01.2014 21:25 1,4 C 94 % 1004,2 hPa 0,0 mm SO 138 6,4 km/h (2 Bft)
18.01.2014 21:30 1,4 C 94 % 1004,3 hPa 0,0 mm O 79 9,7 km/h (2 Bft)
18.01.2014 21:35 1,5 C 94 % 1004,4 hPa 0,0 mm S-SO 151 8,0 km/h (2 Bft)
18.01.2014 21:40 1,5 C 94 % 1004,3 hPa 0,0 mm O 101 6,4 km/h (2 Bft)
18.01.2014 21:45 1,4 C 94 % 1004,3 hPa 0,0 mm SO 125 6,4 km/h (2 Bft)
18.01.2014 21:50 1,4 C 94 % 1004,1 hPa 0,0 mm SO 132 8,0 km/h (2 Bft)
18.01.2014 21:55 1,5 C 94 % 1004,2 hPa 0,0 mm NO 55 8,0 km/h (2 Bft)
18.01.2014 22:00 1,5 C 94 % 1004,1 hPa 0,0 mm O-NO 77 4,8 km/h (1 Bft)
18.01.2014 22:05 1,5 C 94 % 1004,1 hPa 0,0 mm NO 37 4,8 km/h (1 Bft)
18.01.2014 22:10 1,6 C 94 % 1004,1 hPa 0,0 mm S-SO 161 3,2 km/h (1 Bft)
18.01.2014 22:15 1,5 C 94 % 1004,1 hPa 0,0 mm SO 126 4,8 km/h (1 Bft)
18.01.2014 22:20 1,5 C 94 % 1004,1 hPa 0,0 mm W-SW 252 3,2 km/h (1 Bft)
18.01.2014 22:25 1,5 C 94 % 1004,0 hPa 0,0 mm SO 136 6,4 km/h (2 Bft)
18.01.2014 22:30 1,5 C 94 % 1004,0 hPa 0,0 mm SO 128 6,4 km/h (2 Bft)
18.01.2014 22:35 1,6 C 94 % 1003,9 hPa 0,0 mm O 89 8,0 km/h (2 Bft)
18.01.2014 22:40 1,6 C 94 % 1003,8 hPa 0,0 mm O 92 9,7 km/h (2 Bft)
18.01.2014 22:45 1,6 C 94 % 1003,7 hPa 0,0 mm SO 129 12,9 km/h (3 Bft)
18.01.2014 22:50 1,6 C 94 % 1003,7 hPa 0,0 mm O 101 11,3 km/h (2 Bft)
18.01.2014 22:55 1,6 C 94 % 1003,7 hPa 0,0 mm O-SO 104 9,7 km/h (2 Bft)
18.01.2014 23:00 1,6 C 94 % 1003,7 hPa 0,0 mm O-SO 116 8,0 km/h (2 Bft)
18.01.2014 23:05 1,6 C 94 % 1003,7 hPa 0,0 mm SO 135 9,7 km/h (2 Bft)
18.01.2014 23:10 1,6 C 94 % 1003,8 hPa 0,0 mm NO 55 4,8 km/h (1 Bft)
18.01.2014 23:15 1,7 C 94 % 1003,7 hPa 0,0 mm S-SO 160 3,2 km/h (1 Bft)
18.01.2014 23:20 1,6 C 94 % 1003,8 hPa 0,0 mm S-SO 159 3,2 km/h (1 Bft)
18.01.2014 23:25 1,6 C 94 % 1003,8 hPa 0,0 mm S-SO 160 1,6 km/h (1 Bft)
18.01.2014 23:30 1,6 C 94 % 1003,8 hPa 0,0 mm S-SO 160 0,0 km/h (0 Bft)
18.01.2014 23:35 1,6 C 94 % 1003,6 hPa 0,0 mm S-SO 160 1,6 km/h (1 Bft)
18.01.2014 23:40 1,6 C 94 % 1003,5 hPa 0,0 mm S-SO 160 0,0 km/h (0 Bft)
18.01.2014 23:45 1,6 C 94 % 1003,4 hPa 0,0 mm S-SO 160 1,6 km/h (1 Bft)
18.01.2014 23:50 1,6 C 94 % 1003,4 hPa 0,0 mm S 188 1,6 km/h (1 Bft)
18.01.2014 23:55 1,6 C 94 % 1003,4 hPa 0,0 mm S 188 0,0 km/h (0 Bft)
_ Min-Zeit 01:45 15:05 23:45 - - - 00:00
Minimum _ -0,4 C 92 % 1003,4 hPa - - - 0,0 km/h (0 Bft)
_ Max-Zeit 13:15 01:10 03:15 00:00 - - 18:15
Maximum _ 3,2 C 94 % 1009,0 hPa 0,0 mm - - 17,7 km/h
NO (3 Bft)
Durchschnitt _ 1,2 C 94 % 1006,1 hPa #0,0 mm O - 7,9 km/h (2 Bft)